[[{"header":{"parameterUnit":"m.s-1","parameterCategory":1,"la1":30.2991,"la2":30.254,"lo1":-89.0895,"lo2":-89.0444,"dy":0.0017,"dx":0.0017,"nx":28,"ny":28,"refTime":"2025-03-30T03:00:00:Z","depth":0,"parameterNumber":2,"parameterNumberName":"U-component_of_WINDS"},"data":[0,0,0,0,0,0,0,0,0,0,0,0,0,0,0,0,0,0,0,0,0,0,0,0,0,0,0,0,0,0,0,0,0,0,0,0,0,0,0,0,0,0,0,0,0,0,0,0,0,0,0,0,0,0,0,0,0,0,0.6019,0.602,0,0.6119,0.612,0.6121,0.6131,0.6129,0.6128,0.6127,0.6235,0.6239,0.6243,0,0,0,0,0,0,0,0,0,0,0,0,0,0.5843,0.5846,0.6019,0.602,0.6021,0.6119,0.612,0.6121,0.6131,0.6129,0.6128,0.6127,0.6234,0.6239,0.6243,0,0,0,0,0,0,0,0,0,0,0,0,0,0.5929,0.5847,0.6018,0.6037,0.604,0.6118,0.612,0.6122,0.6131,0.6129,0.6128,0.6126,0.6233,0.6238,0.6244,0.6312,0,0,0.6262,0.6264,0,0,0,0,0,0,0,0,0.5924,0.5935,0.6033,0.6036,0.6039,0.611,0.6098,0.6186,0.6131,0.6097,0.6127,0.6126,0.6196,0.6204,0.6227,0.6317,0.6322,0.6262,0.6266,0.6268,0.627,0,0,0,0,0,0,0,0.5918,0.5931,0.6058,0.6035,0.6038,0.6043,0.6054,0.6114,0.6154,0.61,0.61,0.6112,0.6197,0.6221,0.6229,0.6323,0.6262,0.6267,0.6271,0.6273,0.6479,0.6481,0,0,0,0,0,0,0.5908,0.5926,0.6055,0.6061,0.5976,0.6048,0.6059,0.6089,0.6153,0.6161,0.6113,0.6112,0.6212,0.6223,0.6233,0.632,0.6268,0.6274,0.6277,0.6477,0.648,0.6482,0,0,0,0,0,0,0.5904,0.5919,0.6051,0.5994,0.6011,0.6053,0.6086,0.6092,0.6116,0.6164,0.6171,0.613,0.6211,0.6225,0.6293,0.6324,0.6276,0.6282,0.6475,0.6478,0.6481,0.6492,0,0,0,0,0,0,0.5899,0.5917,0.5942,0.5994,0.6014,0.6107,0.6088,0.6095,0.6126,0.6125,0.6182,0.619,0.6211,0.6284,0.6299,0.6331,0.6286,0.6472,0.6476,0.648,0.6489,0.6495,0.65,0,0,0,0,0,0.5892,0.5941,0.5943,0.5958,0.6045,0.6109,0.612,0.6142,0.6128,0.6154,0.6185,0.6188,0.6318,0.6291,0.6308,0.6342,0.647,0.6475,0.6479,0.6487,0.6494,0.65,0,0,0,0,0,0,0.5892,0.5948,0.5951,0.6018,0.6058,0.611,0.6143,0.6149,0.6195,0.6193,0.622,0.6233,0.6301,0.6328,0.6297,0.6413,0.6393,0.6401,0.6393,0.64,0.6406,0.6399,0.6291,0,0,0,0,0,0.5899,0.5944,0.5992,0.6047,0.6067,0.6102,0.613,0.6144,0.6188,0.6205,0.6241,0.6285,0.6337,0.637,0.6419,0.6493,0.6508,0.6525,0.6531,0.6535,0.6542,0.6587,0.6597,0.6496,0.6496,0.6496,0,0,0.5916,0.5952,0.5979,0.6048,0.608,0.6129,0.6116,0.6167,0.6205,0.6214,0.628,0.6308,0.636,0.6432,0.6465,0.6457,0.6573,0.6541,0.6544,0.6549,0.6593,0.6602,0.6611,0.6499,0.6499,0.6498,0,0,0.5971,0.6001,0.6052,0.6086,0.6136,0.6159,0.6171,0.6223,0.6242,0.6309,0.6318,0.6364,0.645,0.6488,0.6518,0.6591,0.6596,0.6606,0.6636,0.6679,0.6687,0.6695,0.6724,0.6734,0.6613,0.6613,0.6613,0,0.5986,0.6057,0.6078,0.613,0.6161,0.6171,0.6224,0.6257,0.6321,0.6344,0.6332,0.6444,0.6479,0.6562,0.658,0.6603,0.6621,0.6601,0.6684,0.6692,0.6699,0.6727,0.6738,0.6614,0.6614,0.6614,0.6614,0,0.6074,0.6124,0.6159,0.6221,0.6256,0.6308,0.634,0.6374,0.6385,0.6411,0.6482,0.6524,0.6584,0.6604,0.6616,0.669,0.6684,0.6678,0.6659,0.6709,0.6736,0.6747,0.6616,0.6615,0.6615,0.6615,0,0,0.6131,0.6205,0.6218,0.6247,0.6304,0.6345,0.6399,0.6457,0.6487,0.6532,0.6581,0.6655,0.6651,0.6685,0.6702,0.674,0.6799,0.673,0.6732,0.6744,0.6888,0.6894,0.6906,0.6802,0.6804,0.6806,0.6885,0,0.6195,0.629,0.6312,0.6395,0.6444,0.6455,0.6503,0.6545,0.6571,0.6619,0.6648,0.6702,0.669,0.6712,0.675,0.6784,0.6829,0.6778,0.6851,0.6854,0.684,0.6919,0.6925,0.6997,0.6895,0.6897,0.6898,0,0.6282,0.6328,0.6416,0.647,0.6491,0.6534,0.659,0.6634,0.6684,0.67,0.674,0.6753,0.6814,0.679,0.6877,0.6842,0.6873,0.6895,0.6898,0.6908,0.688,0.6934,0.702,0.7032,0.6915,0.6913,0.6912,0,0.6318,0.6403,0.6467,0.6492,0.6556,0.6586,0.6614,0.6662,0.6696,0.6747,0.677,0.6827,0.6858,0.6904,0.6933,0.6913,0.7019,0.6996,0.7037,0.7037,0.706,0.7059,0.7156,0.7076,0.7076,0.7076,0.7076,0,0.6389,0.6443,0.6485,0.6525,0.6587,0.6613,0.6675,0.6704,0.6747,0.6795,0.6808,0.6854,0.6888,0.694,0.6963,0.7034,0.7047,0.7065,0.7071,0.7065,0.7063,0.7088,0.7084,0.7079,0.7078,0.7078,0.7077,0,0.644,0.647,0.6542,0.6597,0.6612,0.6656,0.6705,0.6746,0.6772,0.6833,0.6849,0.6893,0.6954,0.6987,0.7064,0.708,0.716,0.7162,0.7143,0.7146,0.7186,0.7183,0.7304,0.7323,0.7228,0.7229,0.723,0,0.6484,0.6526,0.6586,0.6618,0.6647,0.6699,0.6735,0.6763,0.68,0.6861,0.6896,0.6958,0.7009,0.7107,0.7147,0.7207,0.7212,0.7251,0.7221,0.7216,0.7217,0.7215,0.7221,0.7256,0.7257,0.7258,0.7258,0,0.656,0.6573,0.6623,0.6679,0.6721,0.6766,0.6812,0.6838,0.6875,0.6916,0.6978,0.7018,0.7097,0.716,0.7224,0.7256,0.7265,0.7267,0.728,0.7276,0.7265,0.7275,0.716,0.7265,0.7264,0.7264,0.7263,0.7263,0.6611,0.665,0.6699,0.6755,0.6793,0.6835,0.6878,0.691,0.6962,0.7028,0.7042,0.7109,0.7162,0.7248,0.7282,0.7337,0.733,0.7348,0.7353,0.7358,0.7361,0.7254,0.7348,0.7348,0.7348,0.7348,0.7348,0,0.669,0.6723,0.6774,0.6837,0.6882,0.6885,0.6936,0.6975,0.7033,0.708,0.713,0.7204,0.7266,0.7311,0.7375,0.741,0.7417,0.7427,0.7426,0.7434,0.7362,0.7346,0.7421,0.7421,0.7421,0.7421,0.7421,0.7421,0.6737,0.6804,0.6824,0.6912,0.6945,0.701,0.704,0.7081,0.7119,0.72,0.7251,0.728,0.7328,0.7396,0.7454,0.7466,0.749,0.75,0.7513,0.7446,0.7438,0.7431,0.7416,0.7504,0.7505,0.7581,0.7581,0.7582]},{"header":{"parameterUnit":"m.s-1","parameterCategory":1,"la1":30.2991,"la2":30.254,"lo1":-89.0895,"lo2":-89.0444,"dy":0.0017,"dx":0.0017,"nx":28,"ny":28,"refTime":"2025-03-30T03:00:00:Z","depth":0,"parameterNumber":3,"parameterNumberName":"V-component_of_WINDS"},"data":[0,0,0,0,0,0,0,0,0,0,0,0,0,0,0,0,0,0,0,0,0,0,0,0,0,0,0,0,0,0,0,0,0,0,0,0,0,0,0,0,0,0,0,0,0,0,0,0,0,0,0,0,0,0,0,0,0,0,1.994,1.9942,0,2.0146,2.0148,2.015,2.019,2.0188,2.0187,2.0185,2.0399,2.0406,2.0413,0,0,0,0,0,0,0,0,0,0,0,0,0,1.9586,1.9592,1.994,1.9942,1.9945,2.0145,2.0148,2.0151,2.019,2.0188,2.0186,2.0184,2.0397,2.0405,2.0414,0,0,0,0,0,0,0,0,0,0,0,0,0,1.976,1.9594,1.9939,1.9989,1.9995,2.0145,2.0148,2.0152,2.0191,2.0188,2.0186,2.0183,2.0394,2.0405,2.0415,2.0531,0,0,2.0448,2.0453,0,0,0,0,0,0,0,0,1.975,1.9773,1.9979,1.9985,1.9993,2.014,2.0102,2.0279,2.0191,2.0117,2.0185,2.0182,2.0315,2.0332,2.0376,2.0541,2.0551,2.0449,2.0456,2.0461,2.0464,0,0,0,0,0,0,0,1.9738,1.9765,2.0021,1.9982,1.999,2.0002,2.0024,2.0136,2.0227,2.0123,2.0126,2.015,2.0319,2.0366,2.0382,2.0554,2.0449,2.0459,2.0465,2.047,2.0829,2.0832,0,0,0,0,0,0,1.9717,1.9754,2.0015,2.0028,1.9863,2.001,2.0035,2.0095,2.0226,2.0244,2.0152,2.0151,2.0348,2.0369,2.0389,2.0538,2.0461,2.0471,2.0477,2.0826,2.083,2.0833,0,0,0,0,0,0,1.9709,1.974,2.0007,1.9892,1.9927,2.0019,2.0086,2.01,2.0148,2.0248,2.0265,2.0183,2.0347,2.0374,2.0497,2.0546,2.0476,2.0485,2.0823,2.0828,2.0832,2.0833,0,0,0,0,0,0,1.9699,1.9737,1.978,1.9893,1.9933,2.0109,2.0089,2.0106,2.0166,2.0167,2.0282,2.0298,2.0348,2.048,2.0507,2.0559,2.0494,2.0819,2.0825,2.083,2.0829,2.0837,2.0844,0,0,0,0,0,1.9686,1.9772,1.9782,1.9814,1.9989,2.0111,2.0135,2.0188,2.017,2.0216,2.0281,2.0295,2.0535,2.0492,2.0523,2.0579,2.0816,2.0823,2.083,2.0826,2.0836,2.0844,0,0,0,0,0,0,1.9664,1.9788,1.98,1.9925,2.0007,2.0118,2.0177,2.0196,2.0286,2.0284,2.0348,2.0373,2.0493,2.0548,2.0498,2.0701,2.0675,2.0688,2.0661,2.0671,2.0678,2.0664,2.0503,0,0,0,0,0,1.9673,1.9761,1.9865,1.9965,2.0006,2.0084,2.0139,2.0174,2.0262,2.0298,2.0371,2.0457,2.0553,2.0614,2.0707,2.0836,2.0864,2.089,2.0897,2.0903,2.0915,2.0992,2.1006,2.0856,2.0856,2.0856,0,0,1.9694,1.9772,1.9824,1.9963,2.003,2.0122,2.0113,2.0209,2.0279,2.0312,2.0434,2.0491,2.0591,2.0719,2.0778,2.0768,2.0962,2.0912,2.0916,2.0925,2.1001,2.1015,2.1027,2.0861,2.086,2.0859,0,0,1.9779,1.9846,1.9939,2.0007,2.011,2.0162,2.0184,2.0293,2.0332,2.0454,2.0483,2.0566,2.0728,2.08,2.0858,2.0973,2.0992,2.1002,2.1042,2.1116,2.1128,2.1139,2.1184,2.1199,2.1012,2.1012,2.1013,0,1.9793,1.9931,1.9984,2.0081,2.0143,2.0176,2.0273,2.0337,2.0465,2.0508,2.0494,2.0701,2.077,2.0917,2.0946,2.0989,2.102,2.099,2.1121,2.1133,2.1144,2.1188,2.1205,2.1013,2.1013,2.1013,2.1013,0,1.9944,2.004,2.0102,2.0226,2.0295,2.039,2.0461,2.0524,2.0553,2.0607,2.0733,2.0818,2.0931,2.0968,2.0996,2.112,2.1111,2.1108,2.1084,2.1158,2.1201,2.1218,2.1015,2.1014,2.1014,2.1014,0,0,2.0022,2.0175,2.0198,2.0256,2.0373,2.0449,2.0547,2.0657,2.0712,2.0799,2.0887,2.1024,2.1023,2.1089,2.1126,2.119,2.1282,2.1181,2.1184,2.12,2.1429,2.1433,2.1452,2.1293,2.1296,2.1299,2.1422,0,2.0125,2.0301,2.0354,2.0503,2.0594,2.0628,2.0715,2.0797,2.0851,2.0938,2.0997,2.1095,2.1084,2.1125,2.119,2.1257,2.1329,2.1248,2.1378,2.1382,2.1356,2.1474,2.1478,2.159,2.1439,2.1441,2.1444,0,2.0268,2.036,2.0518,2.0627,2.0667,2.0744,2.0851,2.0932,2.1027,2.1062,2.1136,2.1169,2.1276,2.1243,2.1394,2.1337,2.1394,2.1435,2.144,2.1458,2.142,2.1499,2.1626,2.1645,2.147,2.1468,2.1466,0,2.0315,2.0477,2.0594,2.0642,2.077,2.0825,2.0881,2.0973,2.1037,2.1131,2.1174,2.1278,2.1337,2.1418,2.1479,2.1449,2.1627,2.1597,2.1662,2.1661,2.1701,2.1698,2.1844,2.1729,2.1729,2.1729,2.1728,0,2.0427,2.0524,2.0617,2.069,2.08,2.086,2.0968,2.1026,2.1109,2.1195,2.123,2.131,2.1384,2.1475,2.1523,2.1643,2.1668,2.1702,2.1715,2.1702,2.1698,2.1742,2.1738,2.1733,2.1732,2.1732,2.1731,0,2.0499,2.0565,2.0695,2.0807,2.0837,2.0914,2.1011,2.1084,2.1138,2.1248,2.1277,2.1364,2.1473,2.1541,2.1679,2.1712,2.1846,2.1853,2.1814,2.1821,2.1883,2.1878,2.2066,2.2096,2.1957,2.1958,2.1959,0,2.0568,2.0643,2.0763,2.0823,2.088,2.0976,2.1042,2.1104,2.1172,2.1288,2.1348,2.1459,2.1552,2.1726,2.1803,2.191,2.1923,2.1981,2.194,2.1926,2.193,2.1927,2.1937,2.199,2.1991,2.1992,2.1993,0,2.0684,2.0714,2.0807,2.0913,2.0991,2.1077,2.1163,2.1211,2.1288,2.1363,2.1475,2.1547,2.169,2.1802,2.1916,2.1976,2.2,2.2005,2.2026,2.2016,2.1992,2.2011,2.1838,2.2001,2.2,2.2,2.1999,2.1999,2.0761,2.0831,2.0928,2.1032,2.1103,2.1183,2.1259,2.1324,2.1418,2.1539,2.157,2.1689,2.1786,2.1942,2.2004,2.21,2.2092,2.2122,2.213,2.2138,2.2142,2.1973,2.212,2.212,2.212,2.212,2.212,0,2.0883,2.0947,2.1042,2.1163,2.1245,2.1257,2.1354,2.1423,2.1527,2.1615,2.1706,2.1838,2.1947,2.2033,2.2146,2.2206,2.222,2.2234,2.2233,2.2248,2.214,2.2112,2.2222,2.2222,2.2222,2.2222,2.2222,2.2221,2.0957,2.1079,2.112,2.1279,2.1343,2.1459,2.1514,2.159,2.1661,2.1806,2.1897,2.1952,2.2041,2.2161,2.2263,2.2285,2.2328,2.2341,2.2366,2.2265,2.2254,2.2244,2.2219,2.2348,2.2349,2.2467,2.2468,2.2469]}]]